Overview Statistics Trail Chart Weather Telemetry Raw packets
 

This is the latest recevied weather packets stored in our database for station/object KD4EG. If no packets are shown the sender has not sent any weather packets the latest 10 day(s).

<< 54 55 56 57 58 59 60 >>
Time Temp. Humidity Pressure Rain* Wind** Luminosity Snow
1788283092 33.33° C 53% 1021.5 hPa 0 mm - 625 W/m² -
1788282791 32.78° C 54% 1021.4 hPa 0 mm - 592 W/m² -
1788282491 32.78° C 55% 1021.6 hPa 0 mm - 633 W/m² -
1788282191 32.78° C 55% 1021.5 hPa 0 mm - 685 W/m² -
1788281889 33.33° C 56% 1021.6 hPa 0 mm - 692 W/m² -
1788281584 32.78° C 56% 1021.7 hPa 0 mm - 691 W/m² -
1788281281 32.78° C 56% 1021.7 hPa 0 mm - 694 W/m² -
1788280976 32.78° C 57% 1021.8 hPa 0 mm - 669 W/m² -
1788280671 32.22° C 59% 1021.8 hPa 0 mm - 583 W/m² -
1788280371 32.22° C 59% 1021.9 hPa 0 mm - 619 W/m² -
1788280066 31.67° C 59% 1021.9 hPa 0 mm - 629 W/m² -
1788279765 31.67° C 60% 1022.2 hPa 0 mm - 646 W/m² -
1788279464 32.22° C 59% 1022.2 hPa 0 mm - 650 W/m² -
1788279159 31.67° C 60% 1022 hPa 0 mm - 646 W/m² -
1788278855 31.67° C 60% 1022.3 hPa 0 mm - 642 W/m² -
1788278551 31.67° C 59% 1022.3 hPa 0 mm - 654 W/m² -
1788278249 31.67° C 59% 1022 hPa 0 mm - 691 W/m² -
1788277945 32.22° C 58% 1022.2 hPa 0 mm - 678 W/m² -
1788277640 31.67° C 60% 1022.2 hPa 0 mm - 706 W/m² -
1788277335 31.67° C 60% 1022.3 hPa 0 mm - 727 W/m² -
1788277031 31.11° C 61% 1022.3 hPa 0 mm - 733 W/m² -
1788276729 30.56° C 63% 1022.6 hPa 0 mm - 718 W/m² -
1788276424 30.56° C 68% 1022.4 hPa 0 mm - 691 W/m² -
1788276123 31.11° C 65% 1022.4 hPa 0 mm - 681 W/m² -
1788275819 30.56° C 66% 1022.2 hPa 0 mm - 672 W/m² -

* Rain latest hour (hover to see other rain measurements)
** Current wind speed in m/s (hover to see current wind gust speed)